DELTA 1 R/B

Satellite information

Favourite Embed

Satellite Type and Status

ROCKET BODYIN ORBIT

Key statistics

Satellite DELTA 1 R/B at a glance.

Uptime

19371

Days in orbit

Revolutions

≈ 13.2

Per day

Orbit

SSO

Sun Synchronous Orbit

Inclination

102.8

Latest

Satellite identification and parameters

Extended collection of information and parameters for DELTA 1 R/B.

Object identification

Identified? True

Debris? False

Object name: DELTA 1 R/B

International designator: 1972-082C

Object number (NORAD): 6237

Object ID (CCSDS): 6237

Country: UNITED STATES OF AMERICA (US)

Current information (Y/N): Y

RCS size: LARGE

Orbital parameters

Period: 109.198 minutes

Inclination: 102.7993 deg

SMA: 7567.82 km

Apoapsis: 1463.551 km

Periapsis: 915.818 km

RAAN: 81.5715 deg

Eccentricy: 0.03618826

Argument of periapsis: 176.52 deg

Mean anomaly: 305.9081 deg

Mean motion: 13.18701783 rev/day

Mean motion (dot): 0.00000009 rev/day2

B* drag term: 0.00012734535 1/REarth

Two-line elements (TLE)

Creation date: Oct. 27, 2025, 2:46 a.m.

Reference frame: TEME

Reference center: EARTH

Epoch: Oct. 26, 2025, 9:51 p.m. UTC

TLE line 0: 0 DELTA 1 R/B

TLE line 1: 1 06237U 72082C 25299.91080891 .00000009 00000-0 12735-3 0 9990

TLE line 2: 2 06237 102.7993 81.5715 0361883 176.5200 305.9081 13.18701783551699

Live tracking on map

Real-time ground track for satellite DELTA 1 R/B.

In-orbit conjunctions

A list of the most updated potential collisions computed for object DELTA 1 R/B.

Target Orbit TCA Probability of collision Miss distance Type
FENGYUN 1C DEB SSO 2025-06-18 13:36:54 0.0001813468 593.0 (m) DEBRIS

Associated space launch

Meteorological satellite using radiometric imaging

DELTA 1 R/B was lifted into orbit during the mission ‘Delta 0300 | NOAA 2’, on board a Delta 0300 space rocket.

The launch took place on Oct. 15, 1972, 5:19 p.m. from Space Launch Complex 2W.

For more information about the launch, click the button.

Launch to space Delta 0300 | NOAA 2
Delta 0300 | NOAA 2

Agency: N/A

Status: Launch Successful

Launch date: Oct. 15, 1972, 5:19 p.m. UTC

Rocket: Delta 0300

Launch pad: Space Launch Complex 2W

Location: Vandenberg SFB, CA, USA

...

Latest news about this satellite

There are no fresh news available about this satellite. Check back as we update our databases every day.


Newsletter sign-up

Weekly statistics, charts and insights to help you stay on top of the space industry.